SATELIOT_4

导读 | 星芒AI

SATELIOT_4 是一颗由欧洲航天局(ESA)支持的物联网(IoT)卫星,旨在通过低轨卫星网络为全球范围内的远程设备提供连接服务。该卫星采用小型卫星技术,专注于低功耗、广覆盖的通信应用,适用于农业、物流和环境监测等领域。SATELIOT_4 是 Sateliot 公司“物联网星座”计划的一部分,致力于构建可持续、高效的全球物联网通信基础设施。

基本信息
目录编号:
60537
目录名称:
SATELIOT_4
国际标识:
2024-149BX
轨道中心:
EARTH
卫星名称:
SATELIOT_4
卫星全名:
SATELIOT_4
卫星状态:
在轨 (已飞行486 天)
发射日期:
2024-08-16 UTC
国别 :
西班牙 (ES)
星等 :
--
轨道信息
数据来源 国际轨道数据
星历时间: 2025-12-15T01:32:01+0800
1天前
查看轨道信息
半长轴: 6958.123km
偏心率: 0.0001015
轨道倾角: 97.694°
近地点辐角 315.455°
升交点赤经 61.646°
平近点角 44.659°
近地点: 579.281km
远地点: 580.695km
周期: 96.272分钟
每日圈数: 14.957695
详细信息
使用方式:
暂无
2D轨道图
3D轨道图
轨道高度分析图
轨道倾角分析图
轨道综合分析图
查看轨道综合分析图